Time,TemperatureF,DewpointF,PressureIn,WindDirection,WindDirectionDegrees,WindSpeedMPH,WindSpeedGustMPH,Humidity,HourlyPrecipIn,Conditions,Clouds,dailyrainin,SoftwareType,DateUTC
2017-06-26 00:01:00,59.2,51.3,30.08,WSW,244,0.0,0.0,75,0.00,,,0.00,Wunderground v.1.15,2017-06-26 04:01:00,
2017-06-26 00:06:00,59.0,51.4,30.08,WSW,244,0.0,0.0,76,0.00,,,0.00,Wunderground v.1.15,2017-06-26 04:06:00,
2017-06-26 00:08:00,58.9,51.3,30.08,WSW,244,0.0,0.0,76,0.00,,,0.00,Wunderground v.1.15,2017-06-26 04:08:00,
2017-06-26 00:13:00,58.6,51.4,30.08,WSW,244,0.0,0.0,77,0.00,,,0.00,Wunderground v.1.15,2017-06-26 04:13:00,
2017-06-26 00:18:00,58.4,51.6,30.08,WSW,244,0.0,0.0,78,0.00,,,0.00,Wunderground v.1.15,2017-06-26 04:18:00,
2017-06-26 00:23:00,58.2,51.4,30.08,WSW,244,0.0,0.0,78,0.00,,,0.00,Wunderground v.1.15,2017-06-26 04:23:00,
2017-06-26 00:28:00,58.0,51.2,30.08,WSW,244,0.0,0.0,78,0.00,,,0.00,Wunderground v.1.15,2017-06-26 04:28:00,
2017-06-26 00:33:00,57.8,51.7,30.08,WSW,244,0.0,0.0,80,0.00,,,0.00,Wunderground v.1.15,2017-06-26 04:33:00,
2017-06-26 00:38:00,57.7,51.6,30.08,WSW,244,0.0,0.0,80,0.00,,,0.00,Wunderground v.1.15,2017-06-26 04:38:00,
2017-06-26 00:43:00,57.5,51.4,30.08,WSW,244,0.0,0.0,80,0.00,,,0.00,Wunderground v.1.15,2017-06-26 04:43:00,
2017-06-26 00:48:00,57.3,51.5,30.08,WSW,244,0.0,0.0,81,0.00,,,0.00,Wunderground v.1.15,2017-06-26 04:48:00,
2017-06-26 00:53:00,57.2,51.4,30.08,WSW,244,0.0,0.0,81,0.00,,,0.00,Wunderground v.1.15,2017-06-26 04:53:00,
2017-06-26 00:58:00,57.0,51.6,30.08,WSW,244,0.0,0.0,82,0.00,,,0.00,Wunderground v.1.15,2017-06-26 04:58:00,
2017-06-26 01:03:00,56.8,51.4,30.08,WSW,244,0.0,0.0,82,0.00,,,0.00,Wunderground v.1.15,2017-06-26 05:03:00,
2017-06-26 01:08:00,56.7,51.6,30.08,WSW,244,0.0,0.0,83,0.00,,,0.00,Wunderground v.1.15,2017-06-26 05:08:00,
2017-06-26 01:13:00,56.5,51.4,30.08,WSW,244,0.0,0.0,83,0.00,,,0.00,Wunderground v.1.15,2017-06-26 05:13:00,
2017-06-26 01:18:00,56.3,51.2,30.08,WSW,244,0.0,0.0,83,0.00,,,0.00,Wunderground v.1.15,2017-06-26 05:18:00,
2017-06-26 01:23:00,56.2,51.1,30.08,WSW,244,0.0,0.0,83,0.00,,,0.00,Wunderground v.1.15,2017-06-26 05:23:00,
2017-06-26 01:28:00,56.1,51.3,30.08,WSW,244,0.0,0.0,84,0.00,,,0.00,Wunderground v.1.15,2017-06-26 05:28:00,
2017-06-26 01:33:00,56.1,51.3,30.08,WSW,244,0.0,0.0,84,0.00,,,0.00,Wunderground v.1.15,2017-06-26 05:33:00,
2017-06-26 01:36:00,56.0,51.2,30.08,WSW,244,0.0,0.0,84,0.00,,,0.00,Wunderground v.1.15,2017-06-26 05:36:00,
2017-06-26 01:42:00,56.0,51.6,30.08,WSW,244,0.0,0.0,85,0.00,,,0.00,Wunderground v.1.15,2017-06-26 05:42:00,
2017-06-26 01:47:00,55.9,51.5,30.08,WSW,244,0.0,0.0,85,0.00,,,0.00,Wunderground v.1.15,2017-06-26 05:47:00,
2017-06-26 01:52:00,55.9,51.8,30.08,WSW,244,0.0,0.0,86,0.00,,,0.00,Wunderground v.1.15,2017-06-26 05:52:00,
2017-06-26 01:57:00,56.0,51.9,30.08,WSW,244,0.0,0.0,86,0.00,,,0.00,Wunderground v.1.15,2017-06-26 05:57:00,
2017-06-26 02:02:00,56.0,51.9,30.08,WSW,244,0.0,0.0,86,0.00,,,0.00,Wunderground v.1.15,2017-06-26 06:02:00,
2017-06-26 02:07:00,56.0,51.9,30.08,WSW,244,0.0,0.0,86,0.00,,,0.00,Wunderground v.1.15,2017-06-26 06:07:00,
2017-06-26 02:12:00,56.2,51.7,30.08,WSW,244,0.0,0.0,85,0.00,,,0.00,Wunderground v.1.15,2017-06-26 06:12:00,
2017-06-26 02:17:00,56.2,51.7,30.08,WSW,244,0.0,0.0,85,0.00,,,0.00,Wunderground v.1.15,2017-06-26 06:17:00,
2017-06-26 02:22:00,56.1,51.3,30.08,WSW,244,0.0,0.0,84,0.00,,,0.00,Wunderground v.1.15,2017-06-26 06:22:00,
2017-06-26 02:27:00,56.1,51.3,30.08,WSW,244,0.0,0.0,84,0.00,,,0.00,Wunderground v.1.15,2017-06-26 06:27:00,
2017-06-26 02:32:00,56.2,52.1,30.07,WSW,244,0.0,0.0,86,0.00,,,0.00,Wunderground v.1.15,2017-06-26 06:32:00,
2017-06-26 02:37:00,56.2,51.7,30.07,WSW,244,0.0,0.0,85,0.00,,,0.00,Wunderground v.1.15,2017-06-26 06:37:00,
2017-06-26 02:42:00,56.3,51.8,30.07,WSW,244,0.0,0.0,85,0.00,,,0.00,Wunderground v.1.15,2017-06-26 06:42:00,
2017-06-26 02:48:00,56.3,52.2,30.08,WSW,244,0.0,0.0,86,0.00,,,0.00,Wunderground v.1.15,2017-06-26 06:48:00,
2017-06-26 02:53:00,56.3,51.8,30.08,WSW,244,0.0,0.0,85,0.00,,,0.00,Wunderground v.1.15,2017-06-26 06:53:00,
2017-06-26 02:58:00,56.4,51.9,30.08,WSW,244,0.0,0.0,85,0.00,,,0.00,Wunderground v.1.15,2017-06-26 06:58:00,
2017-06-26 03:03:00,56.5,52.4,30.07,WSW,244,0.0,0.0,86,0.00,,,0.00,Wunderground v.1.15,2017-06-26 07:03:00,
2017-06-26 03:09:00,56.5,52.4,30.07,WSW,244,0.0,0.0,86,0.00,,,0.00,Wunderground v.1.15,2017-06-26 07:09:00,
2017-06-26 03:15:00,56.7,52.6,30.07,WSW,244,0.0,0.0,86,0.00,,,0.00,Wunderground v.1.15,2017-06-26 07:15:00,
2017-06-26 03:20:00,56.7,52.6,30.07,WSW,244,0.0,0.0,86,0.00,,,0.00,Wunderground v.1.15,2017-06-26 07:20:00,
2017-06-26 03:26:00,56.7,52.6,30.07,WSW,244,0.0,0.0,86,0.00,,,0.00,Wunderground v.1.15,2017-06-26 07:26:00,
2017-06-26 03:31:00,56.7,52.6,30.07,WSW,244,0.0,0.0,86,0.00,,,0.00,Wunderground v.1.15,2017-06-26 07:31:00,
2017-06-26 03:37:00,56.7,52.6,30.07,WSW,244,0.0,0.0,86,0.00,,,0.00,Wunderground v.1.15,2017-06-26 07:37:00,
2017-06-26 03:42:00,56.7,52.2,30.07,WSW,244,0.0,0.0,85,0.00,,,0.00,Wunderground v.1.15,2017-06-26 07:42:00,
2017-06-26 03:47:00,56.6,52.5,30.07,WSW,244,0.0,0.0,86,0.00,,,0.00,Wunderground v.1.15,2017-06-26 07:47:00,
2017-06-26 03:52:00,56.5,52.0,30.07,WSW,244,0.0,0.0,85,0.00,,,0.00,Wunderground v.1.15,2017-06-26 07:52:00,
2017-06-26 03:58:00,56.4,52.3,30.07,WSW,244,0.0,0.0,86,0.00,,,0.00,Wunderground v.1.15,2017-06-26 07:58:00,
2017-06-26 04:04:00,56.3,51.8,30.07,WSW,244,0.0,0.0,85,0.00,,,0.00,Wunderground v.1.15,2017-06-26 08:04:00,
2017-06-26 04:09:00,56.1,52.0,30.07,WSW,244,0.0,0.0,86,0.00,,,0.00,Wunderground v.1.15,2017-06-26 08:09:00,
2017-06-26 04:14:00,56.0,51.9,30.07,WSW,244,0.0,0.0,86,0.00,,,0.00,Wunderground v.1.15,2017-06-26 08:14:00,
2017-06-26 04:20:00,55.8,51.7,30.07,WSW,244,0.0,0.0,86,0.00,,,0.00,Wunderground v.1.15,2017-06-26 08:20:00,
2017-06-26 04:25:00,55.7,51.6,30.07,WSW,244,0.0,0.0,86,0.00,,,0.00,Wunderground v.1.15,2017-06-26 08:25:00,
2017-06-26 04:30:00,55.5,51.7,30.07,WSW,244,0.0,0.0,87,0.00,,,0.00,Wunderground v.1.15,2017-06-26 08:30:00,
2017-06-26 04:36:00,55.3,51.5,30.07,WSW,244,0.0,0.0,87,0.00,,,0.00,Wunderground v.1.15,2017-06-26 08:36:00,
2017-06-26 04:41:00,55.3,51.5,30.07,WSW,245,0.0,0.0,87,0.00,,,0.00,Wunderground v.1.15,2017-06-26 08:41:00,
2017-06-26 04:47:00,55.2,51.4,30.07,WSW,245,0.0,0.0,87,0.00,,,0.00,Wunderground v.1.15,2017-06-26 08:47:00,
2017-06-26 04:53:00,55.1,51.0,30.07,WSW,245,0.0,0.0,86,0.00,,,0.00,Wunderground v.1.15,2017-06-26 08:53:00,
2017-06-26 04:58:00,55.1,51.0,30.07,WSW,245,1.0,1.0,86,0.00,,,0.00,Wunderground v.1.15,2017-06-26 08:58:00,
2017-06-26 05:03:00,55.3,50.5,30.08,WSW,245,0.0,1.0,84,0.00,,,0.00,Wunderground v.1.15,2017-06-26 09:03:00,
2017-06-26 05:08:00,55.6,50.5,30.08,West,269,1.0,4.0,83,0.00,,,0.00,Wunderground v.1.15,2017-06-26 09:08:00,
2017-06-26 05:13:00,56.2,50.8,30.08,WSW,248,0.0,4.0,82,0.00,,,0.00,Wunderground v.1.15,2017-06-26 09:13:00,
2017-06-26 05:18:00,56.5,50.4,30.08,West,263,2.0,2.0,80,0.00,,,0.00,Wunderground v.1.15,2017-06-26 09:18:00,
2017-06-26 05:23:00,57.0,50.5,30.08,WSW,244,1.0,5.0,79,0.00,,,0.00,Wunderground v.1.15,2017-06-26 09:23:00,
2017-06-26 05:28:00,57.3,50.5,30.08,WSW,258,0.0,1.0,78,0.00,,,0.00,Wunderground v.1.15,2017-06-26 09:28:00,
2017-06-26 05:33:00,57.3,50.5,30.08,SW,235,2.0,2.0,78,0.00,,,0.00,Wunderground v.1.15,2017-06-26 09:33:00,
2017-06-26 05:38:00,57.3,50.5,30.08,West,270,1.0,1.0,78,0.00,,,0.00,Wunderground v.1.15,2017-06-26 09:38:00,
2017-06-26 05:43:00,57.2,50.4,30.08,West,269,0.0,1.0,78,0.00,,,0.00,Wunderground v.1.15,2017-06-26 09:43:00,
2017-06-26 05:48:00,57.0,50.2,30.08,West,269,0.0,0.0,78,0.00,,,0.00,Wunderground v.1.15,2017-06-26 09:48:00,
2017-06-26 05:53:00,56.8,50.0,30.08,West,269,0.0,1.0,78,0.00,,,0.00,Wunderground v.1.15,2017-06-26 09:53:00,
2017-06-26 05:58:00,56.6,50.2,30.08,West,269,0.0,0.0,79,0.00,,,0.00,Wunderground v.1.15,2017-06-26 09:58:00,
2017-06-26 06:03:00,56.3,50.2,30.09,West,269,0.0,1.0,80,0.00,,,0.00,Wunderground v.1.15,2017-06-26 10:03:00,
2017-06-26 06:06:00,56.2,50.1,30.09,WSW,246,0.0,1.0,80,0.00,,,0.00,Wunderground v.1.15,2017-06-26 10:06:00,
2017-06-26 06:11:00,56.0,50.3,30.09,WSW,246,0.0,1.0,81,0.00,,,0.00,Wunderground v.1.15,2017-06-26 10:11:00,
2017-06-26 06:16:00,55.9,50.2,30.09,WSW,246,0.0,2.0,81,0.00,,,0.00,Wunderground v.1.15,2017-06-26 10:16:00,
2017-06-26 06:21:00,55.8,50.1,30.09,West,264,0.0,4.0,81,0.00,,,0.00,Wunderground v.1.15,2017-06-26 10:21:00,
2017-06-26 06:26:00,55.7,50.0,30.09,West,264,0.0,4.0,81,0.00,,,0.00,Wunderground v.1.15,2017-06-26 10:26:00,
2017-06-26 06:31:00,55.5,50.1,30.09,West,263,0.0,1.0,82,0.00,,,0.00,Wunderground v.1.15,2017-06-26 10:31:00,
2017-06-26 06:36:00,55.4,50.0,30.09,West,263,0.0,1.0,82,0.00,,,0.00,Wunderground v.1.15,2017-06-26 10:36:00,
2017-06-26 06:41:00,55.2,50.1,30.09,West,263,0.0,1.0,83,0.00,,,0.00,Wunderground v.1.15,2017-06-26 10:41:00,
2017-06-26 06:46:00,55.2,50.1,30.09,WSW,254,2.0,2.0,83,0.00,,,0.00,Wunderground v.1.15,2017-06-26 10:46:00,
2017-06-26 06:47:00,55.2,50.1,30.09,WSW,254,1.0,2.0,83,0.00,,,0.00,Wunderground v.1.15,2017-06-26 10:47:00,
2017-06-26 06:52:00,55.2,49.8,30.09,West,263,0.0,1.0,82,0.00,,,0.00,Wunderground v.1.15,2017-06-26 10:52:00,
2017-06-26 06:57:00,55.4,50.0,30.09,WSW,238,1.0,2.0,82,0.00,,,0.00,Wunderground v.1.15,2017-06-26 10:57:00,
2017-06-26 07:02:00,55.7,50.0,30.09,SSE,161,0.0,2.0,81,0.00,,,0.00,Wunderground v.1.15,2017-06-26 11:02:00,
2017-06-26 07:07:00,55.9,50.2,30.09,SSE,161,0.0,2.0,81,0.00,,,0.00,Wunderground v.1.15,2017-06-26 11:07:00,
2017-06-26 07:12:00,56.0,50.3,30.09,SSE,161,0.0,1.0,81,0.00,,,0.00,Wunderground v.1.15,2017-06-26 11:12:00,
2017-06-26 07:17:00,56.2,50.1,30.09,SW,221,0.0,2.0,80,0.00,,,0.00,Wunderground v.1.15,2017-06-26 11:17:00,
2017-06-26 07:22:00,56.5,50.4,30.09,WSW,254,1.0,4.0,80,0.00,,,0.00,Wunderground v.1.15,2017-06-26 11:22:00,
2017-06-26 07:27:00,56.9,50.8,30.09,SW,228,2.0,4.0,80,0.00,,,0.00,Wunderground v.1.15,2017-06-26 11:27:00,
2017-06-26 07:32:00,57.1,50.6,30.09,WSW,256,2.0,3.0,79,0.00,,,0.00,Wunderground v.1.15,2017-06-26 11:32:00,
2017-06-26 07:37:00,57.5,51.0,30.09,West,265,0.0,3.0,79,0.00,,,0.00,Wunderground v.1.15,2017-06-26 11:37:00,
2017-06-26 07:42:00,57.8,51.0,30.09,NW,304,1.0,4.0,78,0.00,,,0.00,Wunderground v.1.15,2017-06-26 11:42:00,
2017-06-26 07:47:00,58.2,51.0,30.10,WSW,238,4.0,6.0,77,0.00,,,0.00,Wunderground v.1.15,2017-06-26 11:47:00,
2017-06-26 07:52:00,58.6,51.4,30.10,WNW,282,1.0,4.0,77,0.00,,,0.00,Wunderground v.1.15,2017-06-26 11:52:00,
2017-06-26 07:57:00,59.0,51.4,30.10,WSW,243,1.0,7.0,76,0.00,,,0.00,Wunderground v.1.15,2017-06-26 11:57:00,
2017-06-26 08:02:00,59.2,51.6,30.10,WSW,242,0.0,1.0,76,0.00,,,0.00,Wunderground v.1.15,2017-06-26 12:02:00,
2017-06-26 08:07:00,59.3,51.7,30.10,WSW,247,0.0,2.0,76,0.00,,,0.00,Wunderground v.1.15,2017-06-26 12:07:00,
2017-06-26 08:12:00,59.7,52.5,30.10,SW,221,0.0,3.0,77,0.00,,,0.00,Wunderground v.1.15,2017-06-26 12:12:00,
2017-06-26 08:17:00,60.3,52.3,30.09,WSW,238,0.0,4.0,75,0.00,,,0.00,Wunderground v.1.15,2017-06-26 12:17:00,
2017-06-26 08:22:00,60.8,52.5,30.09,SW,226,2.0,3.0,74,0.00,,,0.00,Wunderground v.1.15,2017-06-26 12:22:00,
2017-06-26 08:24:00,61.0,52.3,30.09,SW,227,0.0,4.0,73,0.00,,,0.00,Wunderground v.1.15,2017-06-26 12:24:00,
2017-06-26 08:29:00,61.7,52.2,30.10,North,355,5.0,5.0,71,0.00,,,0.00,Wunderground v.1.15,2017-06-26 12:29:00,
2017-06-26 08:34:00,62.1,52.2,30.10,West,271,1.0,5.0,70,0.00,,,0.00,Wunderground v.1.15,2017-06-26 12:34:00,
2017-06-26 08:39:00,62.5,52.6,30.10,WSW,246,1.0,4.0,70,0.00,,,0.00,Wunderground v.1.15,2017-06-26 12:39:00,
2017-06-26 08:44:00,62.8,53.3,30.10,SSE,155,1.0,5.0,71,0.00,,,0.00,Wunderground v.1.15,2017-06-26 12:44:00,
2017-06-26 08:49:00,63.4,53.4,30.10,WSW,242,3.0,6.0,70,0.00,,,0.00,Wunderground v.1.15,2017-06-26 12:49:00,
2017-06-26 08:54:00,63.7,53.3,30.10,WSW,238,5.0,6.0,69,0.00,,,0.00,Wunderground v.1.15,2017-06-26 12:54:00,
2017-06-26 08:59:00,64.0,53.2,30.10,SSW,199,1.0,2.0,68,0.00,,,0.00,Wunderground v.1.15,2017-06-26 12:59:00,
2017-06-26 09:00:00,64.0,53.2,30.10,WSW,248,4.0,4.0,68,0.00,,,0.00,Wunderground v.1.15,2017-06-26 13:00:00,
2017-06-26 09:05:00,64.0,53.2,30.10,SW,218,0.0,6.0,68,0.00,,,0.00,Wunderground v.1.15,2017-06-26 13:05:00,
2017-06-26 09:10:00,64.0,53.2,30.10,SW,223,1.0,4.0,68,0.00,,,0.00,Wunderground v.1.15,2017-06-26 13:10:00,
2017-06-26 09:15:00,63.9,53.1,30.11,South,172,2.0,7.0,68,0.00,,,0.00,Wunderground v.1.15,2017-06-26 13:15:00,
2017-06-26 09:20:00,64.1,53.3,30.11,SSE,165,1.0,4.0,68,0.00,,,0.00,Wunderground v.1.15,2017-06-26 13:20:00,
2017-06-26 09:25:00,64.5,53.3,30.11,SSW,207,1.0,5.0,67,0.00,,,0.00,Wunderground v.1.15,2017-06-26 13:25:00,
2017-06-26 09:30:00,64.9,53.7,30.11,SW,221,5.0,5.0,67,0.00,,,0.00,Wunderground v.1.15,2017-06-26 13:30:00,
2017-06-26 09:35:00,65.2,54.0,30.11,South,175,1.0,5.0,67,0.00,,,0.00,Wunderground v.1.15,2017-06-26 13:35:00,
2017-06-26 09:41:00,65.4,52.9,30.11,South,179,2.0,8.0,64,0.00,,,0.00,Wunderground v.1.15,2017-06-26 13:41:00,
2017-06-26 09:46:00,65.4,53.3,30.10,West,272,0.0,8.0,65,0.00,,,0.00,Wunderground v.1.15,2017-06-26 13:46:00,
2017-06-26 09:51:00,65.6,52.7,30.10,SW,221,0.0,5.0,63,0.00,,,0.00,Wunderground v.1.15,2017-06-26 13:51:00,
2017-06-26 09:56:00,65.5,52.1,30.10,WSW,254,3.0,6.0,62,0.00,,,0.00,Wunderground v.1.15,2017-06-26 13:56:00,
2017-06-26 10:01:00,65.0,52.5,30.11,WSW,248,0.0,5.0,64,0.00,,,0.00,Wunderground v.1.15,2017-06-26 14:01:00,
2017-06-26 10:06:00,65.0,52.9,30.11,SW,216,3.0,6.0,65,0.00,,,0.00,Wunderground v.1.15,2017-06-26 14:06:00,
2017-06-26 10:11:00,65.1,52.2,30.11,WSW,258,4.0,6.0,63,0.00,,,0.00,Wunderground v.1.15,2017-06-26 14:11:00,
2017-06-26 10:16:00,65.4,52.5,30.11,WSW,250,2.0,7.0,63,0.00,,,0.00,Wunderground v.1.15,2017-06-26 14:16:00,
2017-06-26 10:21:00,65.8,53.7,30.11,East,85,1.0,5.0,65,0.00,,,0.00,Wunderground v.1.15,2017-06-26 14:21:00,
2017-06-26 10:26:00,66.2,54.1,30.11,SSW,210,0.0,5.0,65,0.00,,,0.00,Wunderground v.1.15,2017-06-26 14:26:00,
2017-06-26 10:31:00,66.3,52.9,30.10,West,262,3.0,7.0,62,0.00,,,0.00,Wunderground v.1.15,2017-06-26 14:31:00,
2017-06-26 10:36:00,66.5,52.6,30.10,SE,130,2.0,7.0,61,0.00,,,0.00,Wunderground v.1.15,2017-06-26 14:36:00,
2017-06-26 10:41:00,66.1,52.3,30.10,NE,49,2.0,6.0,61,0.00,,,0.00,Wunderground v.1.15,2017-06-26 14:41:00,
2017-06-26 10:46:00,66.5,52.6,30.10,SW,226,5.0,6.0,61,0.00,,,0.00,Wunderground v.1.15,2017-06-26 14:46:00,
2017-06-26 10:51:00,67.1,53.6,30.10,SW,232,2.0,5.0,62,0.00,,,0.00,Wunderground v.1.15,2017-06-26 14:51:00,
2017-06-26 10:56:00,67.1,51.4,30.10,WSW,253,2.0,10.0,57,0.00,,,0.00,Wunderground v.1.15,2017-06-26 14:56:00,
2017-06-26 11:01:00,67.2,51.4,30.11,South,172,2.0,10.0,57,0.00,,,0.00,Wunderground v.1.15,2017-06-26 15:01:00,
2017-06-26 11:06:00,67.5,52.2,30.11,SSW,213,2.0,10.0,58,0.00,,,0.00,Wunderground v.1.15,2017-06-26 15:06:00,
2017-06-26 11:11:00,67.8,50.5,30.11,SE,134,4.0,10.0,54,0.00,,,0.00,Wunderground v.1.15,2017-06-26 15:11:00,
2017-06-26 11:16:00,67.5,52.2,30.11,WSW,248,1.0,10.0,58,0.00,,,0.00,Wunderground v.1.15,2017-06-26 15:16:00,
2017-06-26 11:21:00,67.9,50.6,30.11,NNE,15,6.0,9.0,54,0.00,,,0.00,Wunderground v.1.15,2017-06-26 15:21:00,
2017-06-26 11:26:00,67.8,51.0,30.11,West,265,1.0,9.0,55,0.00,,,0.00,Wunderground v.1.15,2017-06-26 15:26:00,
2017-06-26 11:31:00,67.1,50.9,30.11,West,263,8.0,9.0,56,0.00,,,0.00,Wunderground v.1.15,2017-06-26 15:31:00,
2017-06-26 11:36:00,67.8,52.9,30.11,NNW,327,3.0,9.0,59,0.00,,,0.00,Wunderground v.1.15,2017-06-26 15:36:00,
2017-06-26 11:41:00,68.5,50.2,30.11,WSW,254,1.0,8.0,52,0.00,,,0.00,Wunderground v.1.15,2017-06-26 15:41:00,
2017-06-26 11:46:00,68.4,51.1,30.11,SE,145,1.0,9.0,54,0.00,,,0.00,Wunderground v.1.15,2017-06-26 15:46:00,
2017-06-26 11:51:00,68.6,50.3,30.11,West,263,2.0,5.0,52,0.00,,,0.00,Wunderground v.1.15,2017-06-26 15:51:00,
2017-06-26 11:56:00,69.7,51.3,30.11,NW,313,1.0,6.0,52,0.00,,,0.00,Wunderground v.1.15,2017-06-26 15:56:00,
2017-06-26 12:01:00,70.4,53.0,30.10,SSE,152,1.0,6.0,54,0.00,,,0.00,Wunderground v.1.15,2017-06-26 16:01:00,
2017-06-26 12:07:00,71.0,52.0,30.10,SW,215,1.0,8.0,51,0.00,,,0.00,Wunderground v.1.15,2017-06-26 16:07:00,
2017-06-26 12:12:00,70.9,50.2,30.10,East,94,3.0,7.0,48,0.00,,,0.00,Wunderground v.1.15,2017-06-26 16:12:00,
2017-06-26 12:17:00,70.7,55.2,30.09,NNW,340,1.0,7.0,58,0.00,,,0.00,Wunderground v.1.15,2017-06-26 16:17:00,
2017-06-26 12:22:00,70.5,51.0,30.09,South,180,1.0,8.0,50,0.00,,,0.00,Wunderground v.1.15,2017-06-26 16:22:00,
2017-06-26 12:27:00,69.9,49.9,30.09,NW,319,2.0,8.0,49,0.00,,,0.00,Wunderground v.1.15,2017-06-26 16:27:00,
2017-06-26 12:32:00,69.5,50.0,30.09,NW,304,1.0,5.0,50,0.00,,,0.00,Wunderground v.1.15,2017-06-26 16:32:00,
2017-06-26 12:37:00,69.5,51.6,30.09,NE,38,1.0,7.0,53,0.00,,,0.00,Wunderground v.1.15,2017-06-26 16:37:00,
2017-06-26 12:42:00,70.3,49.7,30.09,West,277,4.0,7.0,48,0.00,,,0.00,Wunderground v.1.15,2017-06-26 16:42:00,
2017-06-26 12:47:00,69.8,49.8,30.10,ENE,70,1.0,8.0,49,0.00,,,0.00,Wunderground v.1.15,2017-06-26 16:47:00,
2017-06-26 12:52:00,68.9,48.4,30.10,SSW,204,1.0,9.0,48,0.00,,,0.00,Wunderground v.1.15,2017-06-26 16:52:00,
2017-06-26 12:57:00,68.7,49.3,30.10,West,261,3.0,9.0,50,0.00,,,0.00,Wunderground v.1.15,2017-06-26 16:57:00,
2017-06-26 13:02:00,69.2,48.1,30.10,North,360,5.0,7.0,47,0.00,,,0.00,Wunderground v.1.15,2017-06-26 17:02:00,
2017-06-26 13:07:00,69.9,50.9,30.10,WSW,237,6.0,7.0,51,0.00,,,0.00,Wunderground v.1.15,2017-06-26 17:07:00,
2017-06-26 13:12:00,69.6,48.5,30.10,West,277,2.0,8.0,47,0.00,,,0.00,Wunderground v.1.15,2017-06-26 17:12:00,
2017-06-26 13:17:00,69.7,49.1,30.09,WNW,292,2.0,8.0,48,0.00,,,0.00,Wunderground v.1.15,2017-06-26 17:17:00,
2017-06-26 13:22:00,70.2,48.4,30.09,South,180,4.0,7.0,46,0.00,,,0.00,Wunderground v.1.15,2017-06-26 17:22:00,
2017-06-26 13:27:00,70.5,50.4,30.09,WNW,286,1.0,8.0,49,0.00,,,0.00,Wunderground v.1.15,2017-06-26 17:27:00,
2017-06-26 13:32:00,71.0,49.7,30.08,West,260,5.0,5.0,47,0.00,,,0.00,Wunderground v.1.15,2017-06-26 17:32:00,
2017-06-26 13:37:00,70.8,50.7,30.08,West,277,5.0,6.0,49,0.00,,,0.00,Wunderground v.1.15,2017-06-26 17:37:00,
2017-06-26 13:42:00,71.0,48.0,30.08,West,269,1.0,7.0,44,0.00,,,0.00,Wunderground v.1.15,2017-06-26 17:42:00,
2017-06-26 13:47:00,70.8,47.2,30.08,SSW,207,2.0,8.0,43,0.00,,,0.00,Wunderground v.1.15,2017-06-26 17:47:00,
2017-06-26 13:53:00,70.6,51.1,30.08,WNW,288,0.0,7.0,50,0.00,,,0.00,Wunderground v.1.15,2017-06-26 17:53:00,
2017-06-26 13:58:00,71.2,48.2,30.08,WSW,250,5.0,5.0,44,0.00,,,0.00,Wunderground v.1.15,2017-06-26 17:58:00,
2017-06-26 14:03:00,71.7,49.2,30.08,WSW,252,5.0,5.0,45,0.00,,,0.00,Wunderground v.1.15,2017-06-26 18:03:00,
2017-06-26 14:08:00,71.6,49.1,30.08,East,92,1.0,3.0,45,0.00,,,0.00,Wunderground v.1.15,2017-06-26 18:08:00,
2017-06-26 14:13:00,71.2,48.8,30.08,NE,42,2.0,5.0,45,0.00,,,0.00,Wunderground v.1.15,2017-06-26 18:13:00,
2017-06-26 14:18:00,71.0,47.4,30.08,West,261,5.0,5.0,43,0.00,,,0.00,Wunderground v.1.15,2017-06-26 18:18:00,
2017-06-26 14:23:00,71.8,48.7,30.08,WNW,289,1.0,7.0,44,0.00,,,0.00,Wunderground v.1.15,2017-06-26 18:23:00,
2017-06-26 14:28:00,72.3,51.5,30.08,South,174,1.0,4.0,48,0.00,,,0.00,Wunderground v.1.15,2017-06-26 18:28:00,
2017-06-26 14:33:00,72.4,51.0,30.08,SSW,206,1.0,6.0,47,0.00,,,0.00,Wunderground v.1.15,2017-06-26 18:33:00,
2017-06-26 14:38:00,71.7,46.7,30.08,WSW,248,4.0,6.0,41,0.00,,,0.00,Wunderground v.1.15,2017-06-26 18:38:00,
2017-06-26 14:43:00,70.9,49.1,30.08,West,265,4.0,6.0,46,0.00,,,0.00,Wunderground v.1.15,2017-06-26 18:43:00,
2017-06-26 14:48:00,71.0,49.2,30.09,WSW,252,1.0,5.0,46,0.00,,,0.00,Wunderground v.1.15,2017-06-26 18:48:00,
2017-06-26 14:53:00,71.4,48.9,30.09,SW,234,7.0,7.0,45,0.00,,,0.00,Wunderground v.1.15,2017-06-26 18:53:00,
2017-06-26 14:58:00,71.4,48.3,30.09,SSW,210,1.0,3.0,44,0.00,,,0.00,Wunderground v.1.15,2017-06-26 18:58:00,
2017-06-26 15:03:00,71.7,48.6,30.08,North,360,0.0,6.0,44,0.00,,,0.00,Wunderground v.1.15,2017-06-26 19:03:00,
2017-06-26 15:08:00,71.5,48.4,30.08,ESE,107,1.0,3.0,44,0.00,,,0.00,Wunderground v.1.15,2017-06-26 19:08:00,
2017-06-26 15:10:00,71.4,47.7,30.08,WSW,253,2.0,3.0,43,0.00,,,0.00,Wunderground v.1.15,2017-06-26 19:10:00,
2017-06-26 15:15:00,70.8,48.4,30.08,WSW,244,2.0,6.0,45,0.00,,,0.00,Wunderground v.1.15,2017-06-26 19:15:00,
2017-06-26 15:20:00,70.7,47.7,30.08,SSE,164,6.0,6.0,44,0.00,,,0.00,Wunderground v.1.15,2017-06-26 19:20:00,
2017-06-26 15:25:00,70.6,47.0,30.08,SSW,202,5.0,8.0,43,0.00,,,0.00,Wunderground v.1.15,2017-06-26 19:25:00,
2017-06-26 15:30:00,70.5,48.1,30.07,WSW,248,1.0,7.0,45,0.00,,,0.00,Wunderground v.1.15,2017-06-26 19:30:00,
2017-06-26 15:35:00,70.4,49.2,30.07,NW,304,2.0,7.0,47,0.00,,,0.00,Wunderground v.1.15,2017-06-26 19:35:00,
2017-06-26 15:40:00,70.4,48.6,30.07,SSW,197,2.0,2.0,46,0.00,,,0.00,Wunderground v.1.15,2017-06-26 19:40:00,
2017-06-26 15:45:00,70.3,48.5,30.06,SW,223,2.0,7.0,46,0.00,,,0.00,Wunderground v.1.15,2017-06-26 19:45:00,
2017-06-26 15:50:00,70.3,48.5,30.06,SW,227,1.0,4.0,46,0.00,,,0.00,Wunderground v.1.15,2017-06-26 19:50:00,
2017-06-26 15:55:00,70.7,50.0,30.06,SW,218,1.0,6.0,48,0.00,,,0.00,Wunderground v.1.15,2017-06-26 19:55:00,
2017-06-26 16:00:00,71.5,48.4,30.06,NW,306,1.0,7.0,44,0.00,,,0.00,Wunderground v.1.15,2017-06-26 20:00:00,
2017-06-26 16:05:00,71.3,48.9,30.06,West,271,2.0,9.0,45,0.00,,,0.00,Wunderground v.1.15,2017-06-26 20:05:00,
2017-06-26 16:10:00,72.0,49.5,30.06,WSW,247,2.0,8.0,45,0.00,,,0.00,Wunderground v.1.15,2017-06-26 20:10:00,
2017-06-26 16:15:00,71.9,48.2,30.06,West,275,2.0,8.0,43,0.00,,,0.00,Wunderground v.1.15,2017-06-26 20:15:00,
2017-06-26 16:20:00,71.4,48.9,30.06,WNW,286,2.0,5.0,45,0.00,,,0.00,Wunderground v.1.15,2017-06-26 20:20:00,
2017-06-26 16:25:00,70.9,49.1,30.06,West,274,2.0,6.0,46,0.00,,,0.00,Wunderground v.1.15,2017-06-26 20:25:00,
2017-06-26 16:30:00,70.7,47.7,30.05,SSW,207,2.0,8.0,44,0.00,,,0.00,Wunderground v.1.15,2017-06-26 20:30:00,
2017-06-26 16:36:00,70.5,48.1,30.05,West,272,2.0,8.0,45,0.00,,,0.00,Wunderground v.1.15,2017-06-26 20:36:00,
2017-06-26 16:41:00,70.4,48.0,30.05,WNW,292,2.0,4.0,45,0.00,,,0.00,Wunderground v.1.15,2017-06-26 20:41:00,
2017-06-26 16:46:00,70.4,49.8,30.05,SSW,200,3.0,5.0,48,0.00,,,0.00,Wunderground v.1.15,2017-06-26 20:46:00,
2017-06-26 16:51:00,70.6,49.4,30.05,SSW,204,2.0,4.0,47,0.00,,,0.00,Wunderground v.1.15,2017-06-26 20:51:00,
2017-06-26 16:56:00,70.4,49.2,30.05,WSW,251,2.0,5.0,47,0.00,,,0.00,Wunderground v.1.15,2017-06-26 20:56:00,
2017-06-26 17:01:00,70.1,48.9,30.05,West,260,2.0,4.0,47,0.00,,,0.00,Wunderground v.1.15,2017-06-26 21:01:00,
2017-06-26 17:06:00,69.8,48.7,30.05,WSW,250,4.0,8.0,47,0.00,,,0.00,Wunderground v.1.15,2017-06-26 21:06:00,
2017-06-26 17:11:00,69.5,48.9,30.05,WSW,255,2.0,7.0,48,0.00,,,0.00,Wunderground v.1.15,2017-06-26 21:11:00,
2017-06-26 17:16:00,69.4,49.9,30.04,WSW,252,0.0,7.0,50,0.00,,,0.00,Wunderground v.1.15,2017-06-26 21:16:00,
2017-06-26 17:21:00,69.4,49.9,30.04,SSW,192,0.0,3.0,50,0.00,,,0.00,Wunderground v.1.15,2017-06-26 21:21:00,
2017-06-26 17:26:00,69.3,48.8,30.04,SSE,167,1.0,6.0,48,0.00,,,0.00,Wunderground v.1.15,2017-06-26 21:26:00,
2017-06-26 17:31:00,69.2,51.3,30.03,SSE,163,0.0,2.0,53,0.00,,,0.00,Wunderground v.1.15,2017-06-26 21:31:00,
2017-06-26 17:36:00,69.0,50.6,30.03,WSW,257,1.0,3.0,52,0.00,,,0.00,Wunderground v.1.15,2017-06-26 21:36:00,
2017-06-26 17:41:00,68.7,50.9,30.03,SSW,203,1.0,5.0,53,0.00,,,0.00,Wunderground v.1.15,2017-06-26 21:41:00,
2017-06-26 17:46:00,68.5,52.2,30.02,SW,214,0.0,5.0,56,0.00,,,0.00,Wunderground v.1.15,2017-06-26 21:46:00,
2017-06-26 17:51:00,68.4,51.6,30.02,SW,214,0.0,1.0,55,0.00,,,0.00,Wunderground v.1.15,2017-06-26 21:51:00,
2017-06-26 17:56:00,68.6,51.8,30.02,South,173,1.0,2.0,55,0.00,,,0.00,Wunderground v.1.15,2017-06-26 21:56:00,
2017-06-26 18:01:00,68.8,51.5,30.02,WSW,257,0.0,6.0,54,0.00,,,0.00,Wunderground v.1.15,2017-06-26 22:01:00,
2017-06-26 18:07:00,69.1,50.2,30.02,WSW,257,3.0,6.0,51,0.00,,,0.00,Wunderground v.1.15,2017-06-26 22:07:00,
2017-06-26 18:12:00,69.3,50.9,30.02,SW,216,2.0,4.0,52,0.00,,,0.00,Wunderground v.1.15,2017-06-26 22:12:00,
2017-06-26 18:17:00,69.5,50.6,30.02,South,171,0.0,6.0,51,0.00,,,0.00,Wunderground v.1.15,2017-06-26 22:17:00,
2017-06-26 18:22:00,69.6,50.7,30.02,SW,232,0.0,7.0,51,0.00,,,0.00,Wunderground v.1.15,2017-06-26 22:22:00,
2017-06-26 18:27:00,69.6,50.7,30.02,WNW,290,5.0,7.0,51,0.00,,,0.00,Wunderground v.1.15,2017-06-26 22:27:00,
2017-06-26 18:32:00,69.6,51.2,30.02,SW,223,0.0,4.0,52,0.00,,,0.00,Wunderground v.1.15,2017-06-26 22:32:00,
2017-06-26 18:37:00,69.5,52.6,30.02,WNW,288,1.0,6.0,55,0.00,,,0.00,Wunderground v.1.15,2017-06-26 22:37:00,
2017-06-26 18:42:00,69.5,52.6,30.02,WSW,237,1.0,4.0,55,0.00,,,0.00,Wunderground v.1.15,2017-06-26 22:42:00,
2017-06-26 18:44:00,69.4,52.5,30.02,WSW,237,0.0,4.0,55,0.00,,,0.00,Wunderground v.1.15,2017-06-26 22:44:00,
2017-06-26 18:49:00,69.4,51.5,30.02,West,264,1.0,4.0,53,0.00,,,0.00,Wunderground v.1.15,2017-06-26 22:49:00,
2017-06-26 18:54:00,69.3,52.4,30.02,South,188,10.0,11.0,55,0.00,,,0.00,Wunderground v.1.15,2017-06-26 22:54:00,
2017-06-26 18:59:00,67.6,54.6,30.02,WSW,256,2.0,11.0,63,0.00,,,0.01,Wunderground v.1.15,2017-06-26 22:59:00,
2017-06-26 19:04:00,65.9,55.4,30.01,SE,135,0.0,5.0,69,0.00,,,0.01,Wunderground v.1.15,2017-06-26 23:04:00,
2017-06-26 19:09:00,65.1,56.6,30.01,SE,135,0.0,5.0,74,0.00,,,0.01,Wunderground v.1.15,2017-06-26 23:09:00,
2017-06-26 19:14:00,64.6,56.9,30.01,SE,135,0.0,0.0,76,0.00,,,0.01,Wunderground v.1.15,2017-06-26 23:14:00,
2017-06-26 19:19:00,64.1,56.4,30.01,SE,135,1.0,1.0,76,0.00,,,0.01,Wunderground v.1.15,2017-06-26 23:19:00,
2017-06-26 19:24:00,63.5,54.7,30.01,WSW,246,0.0,6.0,73,0.00,,,0.01,Wunderground v.1.15,2017-06-26 23:24:00,
2017-06-26 19:29:00,63.6,55.2,30.01,WNW,288,1.0,6.0,74,0.00,,,0.01,Wunderground v.1.15,2017-06-26 23:29:00,
2017-06-26 19:34:00,63.8,54.2,30.01,North,5,1.0,2.0,71,0.00,,,0.01,Wunderground v.1.15,2017-06-26 23:34:00,
2017-06-26 19:39:00,64.0,55.2,30.01,NE,48,2.0,2.0,73,0.00,,,0.01,Wunderground v.1.15,2017-06-26 23:39:00,
2017-06-26 19:44:00,64.2,54.6,30.01,ESE,102,0.0,1.0,71,0.00,,,0.01,Wunderground v.1.15,2017-06-26 23:44:00,
2017-06-26 19:49:00,64.3,54.3,30.01,ESE,102,0.0,1.0,70,0.00,,,0.01,Wunderground v.1.15,2017-06-26 23:49:00,
2017-06-26 19:54:00,64.4,54.8,30.01,ESE,102,0.0,1.0,71,0.00,,,0.01,Wunderground v.1.15,2017-06-26 23:54:00,
2017-06-26 19:59:00,64.3,55.5,30.01,ESE,102,0.0,1.0,73,0.00,,,0.01,Wunderground v.1.15,2017-06-26 23:59:00,
2017-06-26 20:04:00,64.3,55.8,30.01,ESE,102,0.0,0.0,74,0.00,,,0.01,Wunderground v.1.15,2017-06-27 00:04:00,
2017-06-26 20:09:00,64.2,56.1,30.01,ESE,102,0.0,0.0,75,0.00,,,0.01,Wunderground v.1.15,2017-06-27 00:09:00,
2017-06-26 20:14:00,64.0,56.3,30.01,ESE,102,0.0,1.0,76,0.00,,,0.01,Wunderground v.1.15,2017-06-27 00:14:00,
2017-06-26 20:19:00,63.7,56.0,30.01,ESE,102,0.0,1.0,76,0.00,,,0.01,Wunderground v.1.15,2017-06-27 00:19:00,
2017-06-26 20:24:00,63.5,56.2,30.01,ESE,102,0.0,0.0,77,0.00,,,0.01,Wunderground v.1.15,2017-06-27 00:24:00,
2017-06-26 20:26:00,63.4,55.7,30.01,ESE,102,0.0,0.0,76,0.00,,,0.01,Wunderground v.1.15,2017-06-27 00:26:00,
2017-06-26 20:31:00,63.3,56.0,30.02,ESE,102,0.0,0.0,77,0.00,,,0.01,Wunderground v.1.15,2017-06-27 00:31:00,
2017-06-26 20:36:00,63.4,56.8,30.02,ESE,102,0.0,0.0,79,0.00,,,0.01,Wunderground v.1.15,2017-06-27 00:36:00,
2017-06-26 20:41:00,63.4,56.1,30.02,ESE,102,0.0,0.0,77,0.00,,,0.01,Wunderground v.1.15,2017-06-27 00:41:00,
2017-06-26 20:46:00,63.4,55.0,30.01,WSW,246,0.0,2.0,74,0.00,,,0.01,Wunderground v.1.15,2017-06-27 00:46:00,
2017-06-26 20:51:00,63.4,56.1,30.01,WSW,246,0.0,0.0,77,0.00,,,0.01,Wunderground v.1.15,2017-06-27 00:51:00,
2017-06-26 20:53:00,63.4,56.1,30.01,WSW,246,0.0,0.0,77,0.00,,,0.01,Wunderground v.1.15,2017-06-27 00:53:00,
2017-06-26 20:58:00,63.3,55.2,30.01,WSW,246,0.0,0.0,75,0.00,,,0.01,Wunderground v.1.15,2017-06-27 00:58:00,
2017-06-26 21:03:00,63.1,55.0,30.00,WSW,248,0.0,1.0,75,0.00,,,0.01,Wunderground v.1.15,2017-06-27 01:03:00,
2017-06-26 21:08:00,62.9,54.9,30.00,SE,136,0.0,1.0,75,0.00,,,0.01,Wunderground v.1.15,2017-06-27 01:08:00,
2017-06-26 21:13:00,62.8,54.0,30.00,SE,136,0.0,1.0,73,0.00,,,0.01,Wunderground v.1.15,2017-06-27 01:13:00,
2017-06-26 21:18:00,62.6,53.1,30.00,SSW,208,0.0,1.0,71,0.00,,,0.01,Wunderground v.1.15,2017-06-27 01:18:00,
2017-06-26 21:23:00,62.6,52.7,30.00,SW,231,1.0,1.0,70,0.00,,,0.01,Wunderground v.1.15,2017-06-27 01:23:00,
2017-06-26 21:28:00,62.5,52.6,30.00,SW,231,0.0,1.0,70,0.00,,,0.01,Wunderground v.1.15,2017-06-27 01:28:00,
2017-06-26 21:33:00,62.4,52.9,30.00,SW,231,0.0,1.0,71,0.00,,,0.01,Wunderground v.1.15,2017-06-27 01:33:00,
2017-06-26 21:38:00,62.2,52.3,30.00,SW,227,0.0,1.0,70,0.00,,,0.01,Wunderground v.1.15,2017-06-27 01:38:00,
2017-06-26 21:43:00,62.0,51.7,30.00,SW,227,0.0,1.0,69,0.00,,,0.01,Wunderground v.1.15,2017-06-27 01:43:00,